Terminal Aerodrome Forecast
Issued by NWS Milwaukee/Sullivan, WI

Home | Current Version | Previous Version | Text Only | Print | Product List | Glossary On
Versions: 1 2 3 4 5 6 7 8 9 10 11 12 13 14 15 16 17 18 19 20 21 22 23 24 25 26 27 28 29 30 31 32 33 34 35 36 37 38 39 40 41 42 43 44 45 46 47 48 49 50
000
FTUS43 KMKX 011141
TAFMSN
TAF
KMSN 011141Z 0112/0212 05017G24KT 1SM -SN BLSN OVC013
     FM012100 03018G30KT 3/4SM -SN BLSN OVC015
     FM020300 01014G26KT 4SM -SN BLSN OVC020
     FM020400 01013G24KT 5SM BLSN OVC020
     FM020600 01011G20KT P6SM BKN060
     FM020800 35008KT P6SM SCT060=

USA.gov is the U.S. government's official web portal to all federal, state and local government web resources and services.